Weather History for Branson, MO

Change the Weather History Date:

Wednesday, July 24, 2013

  Actual Average (KHRO) Record (KHRO)
Temperature  
Mean Temperature 76 °F 79 °F  
Max Temperature 84 °F 90 °F 108 °F (1934)
Min Temperature 68 °F 68 °F 49 °F (1904)
Degree Days  
Heating Degree Days 0 0  
Month to date heating degree days 0  
Since 1 June heating degree days 6  
Since 1 July heating degree days 0  
Cooling Degree Days 11 14  
Month to date cooling degree days 317  
Year to date cooling degree days 721  
Since 1 June cooling degree days 582  
Growing Degree Days 26 (Base 50)    
Moisture  
Dew Point 68 °F    
Average Humidity 81    
Maximum Humidity 100    
Minimum Humidity 55    
Precipitation  
Precipitation 0.01 in 0.10 in 3.07 in (1917)
Month to date precipitation 2.41  
Year to date precipitation 24.65  
Snow  
Snow 0.00 in 0.00 in - ()
Month to date snowfall 0.0  
Since 1 June snowfall 0.0  
Since 1 July snowfall 0.0  
Snow Depth -    
Sea Level Pressure  
Sea Level Pressure 29.98 in    
Wind  
Wind Speed 6 mph (WNW)    
Max Wind Speed 15 mph    
Max Gust Speed 37 mph    
Visibility 10 miles    
Events Rain    
T = Trace of Precipitation, MM = Missing Value Source: NWS Daily Summary

Daily Weather History Graph

Daily Weather History Graph

Search for Another Location

Airport:

Trip Planner

Search our weather history database for the weather conditions in past years. The results will help you decide how hot, cold, wet, or windy it might be!

Date:

Astronomy

Jul. 24, 2013 Rise Set
Actual Time 6:12 AM CDT 8:25 PM CDT
Civil Twilight 5:43 AM CDT 8:54 PM CDT
Nautical Twilight 5:08 AM CDT 9:29 PM CDT
Astronomical Twilight 4:29 AM CDT 10:08 PM CDT
Moon 9:38 PM CDT (7/24) 8:28 AM CDT (7/24)
Length of Visible Light 15h 10m
Length of Day
14h 12m
Waning Gibbous, 94% of the Moon is Illuminated
Jul 24
Waning Gibbous
Jul 29
Last Quarter
Aug 6
New
Aug 14
First Quarter
Aug 20
Full

Hourly Weather History & Observations

Time (CDT) Temp. Heat Index Dew Point Humidity Pressure Visibility Wind Dir Wind Speed Gust Speed Precip Events Conditions
12:15 AM 71.6 °F - 68.0 °F 88% 29.92 in 10.0 mi South 4.6 mph - N/A   Clear
12:35 AM 71.6 °F - 68.0 °F 88% 29.92 in 10.0 mi SSW 4.6 mph - N/A   Clear
12:55 AM 71.6 °F - 68.0 °F 88% 29.94 in 10.0 mi WSW 4.6 mph - N/A   Clear
1:15 AM 71.6 °F - 68.0 °F 88% 29.94 in 10.0 mi SW 3.5 mph - N/A   Clear
1:35 AM 71.6 °F - 68.0 °F 88% 29.94 in 10.0 mi SW 4.6 mph - N/A   Clear
1:55 AM 71.6 °F - 68.0 °F 88% 29.93 in 10.0 mi SW 3.5 mph - N/A   Clear
2:15 AM 71.6 °F - 68.0 °F 88% 29.94 in 10.0 mi WSW 8.1 mph - N/A   Mostly Cloudy
2:35 AM 71.6 °F - 68.0 °F 88% 29.94 in 10.0 mi WSW 8.1 mph 19.6 mph N/A Rain Light Rain
2:55 AM 71.6 °F - 68.0 °F 88% 29.92 in 9.0 mi SW 11.5 mph 17.3 mph 0.01 in Rain Light Rain
3:15 AM 69.8 °F - 68.0 °F 94% 29.92 in 10.0 mi SW 10.4 mph 18.4 mph N/A Rain Light Rain
3:35 AM 69.8 °F - 68.0 °F 94% 29.88 in 9.0 mi SSW 13.8 mph 26.5 mph N/A Rain Light Rain
3:55 AM 69.8 °F - 68.0 °F 94% 29.84 in 8.0 mi SSW 15.0 mph 36.8 mph N/A Rain Light Rain
4:15 AM 69.8 °F - 68.0 °F 94% 29.95 in 10.0 mi NW 12.7 mph 20.7 mph N/A   Mostly Cloudy
4:35 AM 69.8 °F - 68.0 °F 94% 29.94 in 10.0 mi NW 8.1 mph - N/A   Mostly Cloudy
4:55 AM 69.8 °F - 68.0 °F 94% 29.93 in 10.0 mi WNW 5.8 mph - N/A   Partly Cloudy
5:15 AM 69.8 °F - 68.0 °F 94% 29.93 in 10.0 mi NW 5.8 mph - N/A   Partly Cloudy
5:35 AM 69.8 °F - 68.0 °F 94% 29.93 in 10.0 mi NW 10.4 mph - N/A   Clear
5:55 AM 69.8 °F - 68.0 °F 94% 29.93 in 10.0 mi NW 8.1 mph - N/A   Clear
6:15 AM 69.8 °F - 68.0 °F 94% 29.94 in 10.0 mi NW 6.9 mph - N/A   Clear
6:35 AM 69.8 °F - 68.0 °F 94% 29.95 in 10.0 mi NW 5.8 mph - N/A   Clear
6:48 AM 68.0 °F - 68.0 °F 100% 29.95 in 10.0 mi NW 5.8 mph - N/A   Overcast
7:45 AM 71.6 °F - 69.8 °F 94% 29.98 in 10.0 mi Calm Calm - N/A   Overcast
8:45 AM 73.4 °F - 69.8 °F 88% 30.00 in 10.0 mi NW 5.8 mph - N/A   Overcast
9:45 AM 75.2 °F - 69.8 °F 83% 30.01 in 10.0 mi NNW 4.6 mph - N/A   Overcast
10:45 AM 75.2 °F - 68.0 °F 78% 30.03 in 10.0 mi NNW 5.8 mph - N/A   Overcast
11:49 AM 77.0 °F - 66.2 °F 69% 30.04 in 10.0 mi NNW 12.7 mph - N/A   Mostly Cloudy
12:45 PM 80.6 °F 82.7 °F 66.2 °F 61% 30.03 in 10.0 mi North 9.2 mph - N/A   Mostly Cloudy
1:45 PM 82.4 °F 84.6 °F 66.2 °F 58% 30.02 in 10.0 mi North 11.5 mph 19.6 mph N/A   Mostly Cloudy
2:50 PM 82.4 °F 84.6 °F 66.2 °F 58% 30.01 in 10.0 mi North 11.5 mph - N/A   Overcast
3:45 PM 82.4 °F 84.6 °F 66.2 °F 58% 30.01 in 10.0 mi NNW 6.9 mph - N/A   Mostly Cloudy
4:45 PM 84.2 °F 86.6 °F 66.2 °F 55% 30.00 in 10.0 mi North 6.9 mph - N/A   Mostly Cloudy
5:45 PM 82.4 °F 85.4 °F 68.0 °F 62% 29.99 in 10.0 mi ESE 5.8 mph - N/A   Scattered Clouds
6:45 PM 80.6 °F 83.2 °F 68.0 °F 65% 29.99 in 10.0 mi SE 4.6 mph - N/A   Scattered Clouds
7:55 PM 80.6 °F 83.2 °F 68.0 °F 65% 29.99 in 10.0 mi SE 4.6 mph - N/A   Scattered Clouds
8:45 PM 77.0 °F - 69.8 °F 78% 30.01 in 10.0 mi Calm Calm - N/A   Mostly Cloudy
8:55 PM 77.0 °F - 69.8 °F 78% 30.02 in 10.0 mi Calm Calm - N/A   Mostly Cloudy
9:15 PM 75.2 °F - 69.8 °F 83% 30.02 in 10.0 mi Calm Calm - N/A   Scattered Clouds
9:35 PM 75.2 °F - 68.0 °F 78% 30.03 in 10.0 mi Calm Calm - N/A   Partly Cloudy
9:55 PM 75.2 °F - 68.0 °F 78% 30.04 in 10.0 mi Calm Calm - N/A   Mostly Cloudy
10:15 PM 73.4 °F - 68.0 °F 83% 30.04 in 10.0 mi Calm Calm - N/A   Scattered Clouds
10:35 PM 73.4 °F - 66.2 °F 78% 30.04 in 10.0 mi East 3.5 mph - N/A   Clear
10:55 PM 73.4 °F - 64.4 °F 73% 30.05 in 10.0 mi Calm Calm - N/A   Clear
11:15 PM 73.4 °F - 64.4 °F 73% 30.05 in 10.0 mi East 3.5 mph - N/A   Clear
11:35 PM 73.4 °F - 62.6 °F 69% 30.05 in 10.0 mi East 4.6 mph - N/A   Partly Cloudy
11:55 PM 71.6 °F - 62.6 °F 73% 30.06 in 10.0 mi East 3.5 mph - N/A   Partly Cloudy